Skip Page Navigation
NASA JPL Caltech
NASA Logo - Jet Propulsion Laboratory + View the NASA Portal
+ Center for Near-Earth Object Studies
JPL Home Earth Solar System Stars & Galaxies Technology
JPL Solar System Dynamics
BODIES ORBITS EPHEMERIDES TOOLS PHYSICAL DATA DISCOVERY FAQ SITE MAP
IMPORTANT: The SSD Announcement email list is now available. Major changes are coming in the near future, including possible hostname and/or URL changes. To be notified of such changes, subscribe to this email list.

Please visit this page for more details.


JPL Small-Body Database Browser
Search: [ help ]  
48684 (1996 EP)
Classification: Main-belt Asteroid          SPK-ID: 2048684
Ephemeris | Orbit Diagram | Orbital Elements | Mission Design | Physical Parameters | Discovery Circumstances ]

[ show orbit diagram ]
Orbital Elements at Epoch 2458600.5 (2019-Apr-27.0) TDB
Reference: JPL 21 (heliocentric ecliptic J2000)
 Element Value Uncertainty (1-sigma)   Units 
e .1874231498832725 3.6577e-08  
a 2.401137459174563 9.1965e-09 au
q 1.951108713273349 8.727e-08 au
i 1.890307701364579 4.4979e-06 deg
node 1.110713313750809 0.00013126 deg
peri 57.33142178511041 0.00013187 deg
M 172.8045844041552 1.3486e-05 deg
tp 2457948.155927475497
(2017-Jul-13.65592748)
4.9459e-05 TDB
period 1359.014096290226
3.72
7.8077e-06
2.138e-08
d
yr
n .26489791458581 1.5219e-09 deg/d
Q 2.851166205075777 1.092e-08 au
  Orbit Determination Parameters
   # obs. used (total)      1122  
   data-arc span      8456 days (23.15 yr)  
   first obs. used      1996-03-14  
   last obs. used      2019-05-09  
   planetary ephem.      DE431  
   SB-pert. ephem.      SB431-N16  
   condition code      0  
   norm. resid. RMS      .56763  
   source      ORB  
   producer      Otto Matic  
   solution date      2019-May-30 04:39:08  

Additional Information
 Earth MOID = .963755 au 
 Jupiter MOID = 2.4898 au 
 T_jup = 3.501 
[ show covariance matrix ]

Ephemeris | Orbit Diagram | Orbital Elements | Mission Design | Physical Parameters | Discovery Circumstances ]

Physical Parameter Table
Parameter Symbol Value Units Sigma Reference Notes
absolute magnitude H 14.9   n/a MPO337646  

48684 (1996 EP)          Discovered 1996-Mar-14 by di Cicco, D. at Sudbury
Reference: 20021120/Numbers.arcLast Updated: 2004-04-19

Alternate Designations
 1996 EP = 1998 VV22 = 2000 GY41 
Ephemeris | Orbit Diagram | Orbital Elements | Mission Design | Physical Parameters | Discovery Circumstances ]
ABOUT SSD CREDITS/AWARDS PRIVACY/COPYRIGHT GLOSSARY LINKS
FirstGov
(server date/time)  
NASA Home Page
Site Manager:   Ryan S. Park
Webmaster  Alan B. Chamberlin